SCP
4 5 6 7 5 4 4 4 4 4 3 3 3 2 1 1 1 1 0 0 0 0 0 0 0 0 0 0 0 0 0 0 0 0 0 0 0 0 0 0 0 0 0
4 5 5 4 4 4 4 4 4 4 3 2 2 2 1 1 1 1 0 0 0 0 0 0 0 0 0 0 0 0 0 0 0 0 0 0 0 0 0 0 0 0 0
4 4 3 2 2 3 4 4 5 4 3 2 1 1 1 0 0 0 0 0 0 0 0 0 0 0 0 0 0 0 0 0 0 0 0 0 0 0 0 0 0 0 0
3 3 2 1 1 2 2 3 4 4 3 2 1 1 0 0 0 0 0 0 0 0 0 0 0 0 0 0 0 0 0 0 0 0 0 0 0 0 0 0 0 0 0
3 2 1 1 1 1 2 2 3 4 3 1 1 0 0 0 0 0 0 0 0 0 0 0 0 0 0 0 0 0 0 0 0 0 0 0 0 0 0 0 0 0 0
4 3 2 1 1 1 1 2 2 2 1 1 1 0 0 0 0 0 0 0 0 0 0 0 0 0 0 0 0 0 0 0 0 0 0 0 0 0 0 0 0 0 0
4 3 2 1 1 1 1 1 1 1 1 1 1 0 0 0 0 0 0 0 0 0 0 0 0 0 0 0 0 0 0 0 0 0 0 0 0 0 0 0 0 0 0
2 2 1 1 1 1 1 1 1 1 1 1 0 0 0 0 0 0 0 0 0 0 0 0 0 0 0 0 0 0 0 0 0 0 0 0 0 0 0 0 0 0 0
1 1 1 1 1 1 1 1 1 1 1 1 1 1 1 1 1 0 0 0 0 0 0 0 0 0 0 0 0 0 0 0 0 0 0 0 0 0 0 0 0 0 0
1 1 1 1 1 1 1 1 2 1 1 1 1 1 1 1 1 1 1 0 0 0 0 0 0 0 0 0 0 0 0 0 0 0 0 0 0 0 0 0 0 0 0
1 1 1 1 1 1 1 1 2 2 1 1 1 1 1 1 1 1 1 0 0 0 0 0 0 1 1 1 1 0 0 0 0 0 0 0 0 0 0 0 0 0 0
1 1 1 1 1 1 1 2 2 2 2 2 1 1 1 1 1 1 1 1 1 1 1 1 0 1 1 1 1 1 0 0 0 0 0 0 0 0 0 0 0 0 0
2 1 1 1 1 1 2 2 2 2 2 2 2 1 1 1 1 1 1 1 1 1 1 1 1 1 1 1 1 1 1 0 0 0 0 0 0 0 0 0 0 0 0
2 2 1 1 1 2 2 2 2 2 2 2 2 1 1 1 1 1 1 1 1 1 1 1 1 1 1 1 1 1 1 1 0 0 0 0 0 0 0 0 0 0 0
2 2 1 1 1 1 2 2 1 2 2 2 2 1 1 1 1 1 2 2 2 2 2 2 1 1 1 1 1 1 1 1 1 1 1 1 1 0 0 0 0 0 0
2 2 1 1 1 1 1 1 1 1 2 2 2 1 1 1 1 2 3 4 3 2 2 2 1 1 1 1 1 0 1 1 1 1 1 1 1 1 0 0 0 0 0
2 1 1 1 1 1 1 1 1 1 1 1 1 1 1 1 2 4 5 6 4 2 2 2 2 2 1 1 0 0 0 0 1 1 1 1 1 1 0 0 0 0 0
1 1 1 1 1 1 1 1 1 1 1 1 2 2 2 2 3 5 7 7 4 2 2 2 2 2 2 1 0 0 0 0 0 0 0 0 0 0 0 0 0 0 0
0 0 0 1 1 1 1 1 1 1 1 1 1 2 2 2 3 5 5 5 3 2 2 2 2 2 1 1 0 0 0 0 0 0 0 0 0 0 0 0 0 0 0
0 0 0 0 0 1 1 1 1 1 1 1 1 1 1 2 2 2 2 2 1 1 1 1 1 1 1 1 0 0 0 0 0 0 0 0 0 0 0 0 0 0 0
0 0 0 0 0 0 0 0 0 0 0 0 0 0 0 0 0 0 1 0 0 0 0 1 1 1 1 0 0 0 0 0 0 0 0 0 0 0 0 0 0 0 0
0 0 0 0 0 0 0 0 0 0 0 0 0 0 0 0 0 0 0 0 0 0 0 0 0 0 0 0 0 0 0 0 0 0 0 0 0 0 0 0 0 0 0
0 0 0 0 0 0 0 0 0 0 0 0 0 0 0 0 0 0 0 0 0 0 0 0 0 0 0 0 0 0 0 0 0 0 0 0 0 0 0 0 0 0 0
0 0 0 0 0 0 0 0 0 0 0 0 0 0 0 0 0 0 0 0 0 0 0 0 0 0 0 0 0 0 0 0 0 0 0 0 0 0 0 0 0 0 0
0 0 0 0 0 0 0 0 0 0 0 0 0 0 0 0 0 0 0 0 0 0 0 0 0 0 0 0 0 0 0 0 0 0 0 0 0 0 0 0 0 0 0
0 0 0 0 0 0 0 0 0 0 0 0 0 0 0 0 0 0 0 0 0 0 0 0 0 0 0 0 0 0 0 0 0 0 0 0 0 0 0 0 0 0 0
Wind_Speed
6 6 7 9 9 8 10 10 9 8 7 6 6 6 5 4 3 3 4 4 4 4 4 3 3 3 3 3 2 2 3 2 1 3 3 3 3 1 0 1 1 1 1
7 7 7 7 9 10 10 11 10 9 7 6 5 4 5 3 3 3 3 4 4 4 4 4 3 3 3 3 3 3 2 2 2 3 2 2 4 3 2 1 1 1 1
11 10 10 8 9 10 11 10 10 9 7 7 5 5 4 3 2 2 2 3 4 5 5 5 4 3 3 3 3 3 3 2 2 1 3 3 2 2 3 2 1 1 1
10 9 10 10 10 10 9 9 9 8 7 7 7 8 6 5 4 4 3 3 4 5 5 5 5 4 3 3 2 3 3 3 2 2 1 1 3 3 0 3 2 1 1
11 10 10 11 9 9 9 9 9 8 7 7 8 8 5 4 3 3 4 3 3 4 4 5 4 4 3 3 3 3 3 2 2 1 1 2 2 2 3 1 3 3 2
11 9 8 8 7 7 8 9 9 8 8 8 8 8 8 6 6 5 5 3 2 2 4 4 4 4 3 3 3 3 4 3 3 2 2 2 2 1 2 2 1 2 3
11 10 9 9 8 9 9 9 10 9 9 9 8 8 8 8 8 7 6 5 3 3 4 4 4 4 4 4 4 3 3 3 3 2 2 2 2 2 3 3 1 1 3
10 11 11 10 10 10 10 10 11 10 9 9 7 7 7 5 5 6 5 6 5 5 5 6 5 5 5 5 4 2 2 2 2 2 2 1 1 1 2 3 3 1 2
12 12 11 10 10 10 10 11 11 10 9 9 7 7 7 6 6 6 5 4 4 5 6 6 6 6 6 5 5 3 3 3 3 2 2 2 1 1 1 2 3 4 1
11 11 11 11 10 10 10 10 11 11 10 10 8 8 7 7 6 5 6 5 5 5 6 7 7 6 6 6 5 3 3 4 4 3 3 2 2 1 1 1 2 3 4
11 11 10 10 10 9 10 10 10 9 9 9 8 7 6 6 5 5 6 5 5 6 7 7 7 7 7 6 6 5 5 5 5 4 4 5 4 3 2 1 2 2 3
8 10 10 9 9 10 10 10 10 10 9 9 7 7 6 6 6 6 6 5 6 6 7 7 7 8 8 7 7 7 7 6 6 6 5 6 4 5 4 3 3 3 3
6 7 8 8 9 9 9 10 10 10 9 8 8 7 6 6 6 6 6 6 6 6 6 7 7 8 8 8 8 8 7 7 7 7 7 7 6 6 4 5 4 4 4
8 8 8 8 8 8 8 9 9 9 8 8 7 7 7 6 6 6 5 6 6 6 6 7 7 7 7 8 8 8 8 7 7 7 7 7 8 8 7 6 6 5 5
7 7 7 6 7 7 7 7 6 6 7 7 7 6 6 5 5 4 4 4 4 5 5 5 5 6 6 7 7 8 8 8 7 7 7 8 10 11 9 7 7 7 6
6 6 6 6 6 6 6 6 5 5 6 6 5 4 4 3 2 2 2 2 2 2 2 4 4 4 5 7 9 8 6 6 7 7 7 7 9 11 13 14 12 10 9
7 6 6 5 5 5 6 6 6 6 7 6 5 4 4 4 3 2 2 1 0 0 1 1 2 2 2 3 4 7 4 4 4 5 5 5 5 6 5 8 11 11 14
8 7 6 7 6 7 7 8 9 9 9 8 6 5 5 4 3 4 2 1 1 1 1 1 0 0 1 0 2 2 2 1 2 2 3 3 3 3 3 4 5 6 7
9 8 7 8 9 9 9 11 11 10 10 9 7 5 5 5 5 4 3 2 2 2 2 2 2 2 3 4 2 2 1 1 2 2 2 2 2 5 5 3 4 6 7
10 9 9 11 11 9 10 13 11 10 9 7 6 6 6 6 5 4 4 3 3 3 4 4 4 4 4 6 6 4 2 2 2 3 3 4 4 6 6 3 4 7 8
11 11 12 11 9 8 11 12 11 9 6 6 6 6 6 5 5 4 4 4 4 5 5 5 4 5 6 7 7 6 3 1 1 2 2 3 6 8 9 7 5 9 9
11 11 11 10 8 8 11 12 9 6 6 6 7 6 5 5 5 5 5 4 5 5 4 4 4 3 4 5 6 6 4 2 1 2 3 4 9 11 12 9 10 13 11
10 9 11 10 8 7 8 10 6 5 6 7 6 5 5 4 4 4 4 3 3 3 2 2 2 1 2 2 4 5 5 4 1 2 6 9 11 11 8 10 13 11 6
9 8 10 10 7 6 7 7 6 6 7 6 5 4 4 4 4 3 3 2 2 2 2 1 1 1 2 2 3 3 3 5 4 4 7 9 10 8 8 9 7 5 5
7 7 8 8 7 6 6 6 6 6 7 6 5 4 4 4 3 3 2 2 1 2 2 1 1 1 1 3 3 2 3 3 3 4 3 3 4 5 5 5 6 5 5
8 8 8 8 7 7 6 5 5 6 6 5 4 3 3 3 3 3 4 6 5 6 6 4 3 1 1 4 6 7 7 8 6 3 3 4 4 5 5 6 6 6 5
Wind_Direction
163 157 155 162 158 162 159 154 158 154 147 141 140 139 138 138 133 144 136 127 119 110 106 103 93 98 102 108 104 92 70 43 62 67 25 359 358 18 38 112 115 137 167
157 161 159 168 166 168 167 162 161 160 158 151 146 142 136 143 143 139 132 133 125 120 117 113 109 106 101 87 79 85 83 32 59 111 91 26 354 344 351 2 124 123 119
170 171 170 178 173 174 173 166 165 161 156 147 129 120 103 95 99 124 138 148 136 124 120 123 117 110 114 111 98 93 100 80 21 88 137 141 202 297 329 330 341 132 128
170 174 174 178 178 177 172 164 164 161 157 151 147 148 148 156 175 169 163 156 146 137 133 127 120 116 117 120 118 105 106 110 66 15 38 146 154 146 307 329 329 316 244
173 177 179 179 177 173 170 167 164 163 161 160 159 155 154 160 154 151 153 156 154 155 150 139 129 129 127 129 116 108 102 110 119 98 64 58 58 91 133 240 314 330 304
175 176 179 171 171 173 171 167 166 170 170 165 164 163 163 158 154 161 165 167 165 170 168 153 147 147 143 145 141 131 124 123 119 114 109 122 122 135 137 166 245 281 290
173 172 175 176 177 178 176 171 172 176 174 169 170 171 169 166 168 170 173 170 173 187 193 170 164 161 165 165 156 146 148 148 141 147 144 142 159 167 149 138 171 282 300
174 178 182 181 182 179 175 174 177 177 174 173 176 174 168 168 174 175 174 180 187 195 189 181 179 178 176 174 164 161 173 166 165 171 165 160 182 161 159 156 143 76 330
179 182 182 181 181 180 178 178 176 174 176 175 176 180 176 174 181 183 181 186 193 195 188 184 183 184 181 178 170 180 197 186 192 199 199 194 219 193 176 164 154 150 181
181 182 184 184 183 180 178 176 174 177 177 178 184 188 185 184 184 180 189 193 195 193 182 186 187 188 187 182 177 185 198 191 204 203 206 217 223 224 190 176 174 161 165
181 183 184 183 179 176 176 174 175 175 178 183 187 187 185 187 187 190 200 198 195 190 188 189 189 192 194 190 188 198 197 203 214 215 209 223 219 219 220 199 185 181 167
175 178 177 175 176 179 180 180 179 183 185 184 183 187 188 189 196 206 208 201 198 196 194 191 192 199 200 197 198 208 207 206 215 220 217 226 224 224 224 217 221 216 200
163 162 165 170 177 181 182 183 185 188 185 179 181 186 189 192 202 210 211 205 200 200 197 194 199 205 203 203 207 210 213 213 216 217 218 225 220 228 226 223 226 229 228
162 161 165 170 171 175 177 180 183 183 178 174 177 186 196 200 205 205 207 208 202 201 202 202 205 206 204 206 209 211 217 220 222 221 220 222 218 223 223 226 226 226 231
150 157 160 161 159 161 165 169 173 173 170 164 174 192 200 204 208 208 213 214 212 213 208 207 214 211 210 216 213 214 217 221 229 231 229 229 226 224 222 225 222 220 228
139 139 139 144 150 154 156 155 156 160 149 153 167 174 172 175 175 177 176 174 204 220 210 213 214 213 225 232 220 214 221 220 225 235 241 245 242 241 237 237 232 221 225
118 114 117 128 136 136 132 131 131 116 107 108 107 115 124 119 119 111 92 99 203 173 201 219 202 210 235 236 225 219 219 225 232 238 246 258 262 253 252 253 252 246 242
103 94 95 98 98 100 98 97 94 94 94 92 90 94 105 109 95 82 73 40 36 83 96 63 86 110 17 153 196 190 180 216 260 264 264 264 288 317 305 286 280 272 265
100 92 89 90 89 89 94 92 86 85 84 81 78 76 86 88 79 74 60 43 45 34 35 39 54 62 27 35 59 119 88 39 353 359 12 16 7 358 2 341 311 301 294
94 91 85 83 81 80 88 87 83 80 78 77 73 69 70 77 76 73 67 48 52 43 46 50 52 63 54 48 59 78 70 48 18 5 5 25 19 0 357 336 306 295 293
96 93 89 83 79 82 88 86 84 82 85 84 78 69 69 75 76 65 60 61 61 57 57 62 53 53 54 53 61 68 69 60 19 347 327 318 331 328 321 309 273 269 280
99 97 94 87 78 79 87 86 82 81 79 76 70 63 58 63 71 68 59 54 58 60 58 63 54 45 44 52 55 57 56 47 36 313 303 304 317 317 312 303 288 287 288
103 98 98 93 81 77 88 92 86 80 74 70 65 57 51 51 58 68 65 55 55 65 59 72 74 47 18 19 32 32 24 15 358 296 304 309 311 312 306 299 300 302 292
108 107 103 99 91 82 83 90 88 81 75 67 57 50 49 44 44 53 67 75 70 73 66 67 74 52 1 350 350 351 348 347 339 326 315 315 313 309 300 302 305 298 286
111 109 108 107 105 95 85 82 82 81 73 62 53 47 48 50 46 42 51 76 85 132 127 126 127 98 359 310 323 343 337 329 319 323 325 327 327 325 320 315 308 305 307
116 111 108 107 104 98 91 81 79 80 76 60 45 41 39 39 42 46 39 42 61 65 81 99 104 78 328 335 349 348 344 339 338 350 325 315 312 310 311 312 311 307 305